CW0508 Weather Reports


time (UTC)temp
F
wind
direction
speed
knots
gust
knots
rain 1hr
in
rain 24hr
in
rain mn
in
humidity
%
barometer
mb
20260504141156 59 189 3.5 13.9 0.00 0.00 0.00 45 1012.3
20260504140156 58 267 3.5 15.6 0.00 0.00 0.00 47 1012.2
20260504120156 45 256 0.0 2.6 0.00 0.00 0.00 68 1013.2
20260504110156 38 262 0.0 0.0 0.00 0.00 0.00 87 1013.0
20260504070145 39 262 0.0 0.0 0.00 0.00 0.00 80 1012.8
20260504060145 38 262 0.0 0.0 0.00 0.00 0.00 79 1012.7
20260504050145 36 264 0.0 0.0 0.00 0.00 0.00 80 1012.9
20260504044145 36 262 0.0 0.0 0.00 0.00 0.00 80 1012.9
20260504043145 35 261 0.0 0.0 0.00 0.00 0.00 80 1012.9
20260504042145 35 263 0.0 0.0 0.00 0.00 0.00 80 1012.9
20260504041145 35 262 0.0 0.0 0.00 0.00 0.00 80 1012.9
20260504040145 35 260 0.0 0.0 0.00 0.00 0.00 80 1012.8
20260504035145 35 262 0.0 0.0 0.00 0.00 0.00 79 1012.8
20260504033145 35 261 0.0 0.0 0.00 0.00 0.00 78 1012.6
20260504031145 35 262 0.0 0.0 0.00 0.00 0.00 77 1012.6
20260504025145 36 261 0.0 0.0 0.00 0.00 0.00 75 1012.6
20260504024145 36 260 0.0 0.0 0.00 0.00 0.00 75 1012.6
20260504023145 36 262 0.0 0.0 0.00 0.00 0.00 74 1012.5
20260504022145 37 261 0.0 0.0 0.00 0.00 0.00 74 1012.5
20260503214142 52 359 2.6 11.3 0.00 0.00 0.00 39 1010.2
20260503212142 53 326 0.9 12.2 0.00 0.00 0.00 39 1010.1
20260503210142 51 273 9.6 11.3 0.00 0.00 0.00 41 1010.1
20260503205142 52 12 6.1 10.4 0.00 0.00 0.00 41 1010.1
20260503204142 52 206 1.7 10.4 0.00 0.00 0.00 40 1010.2
20260503201142 52 301 0.0 12.2 0.00 0.00 0.00 44 1010.0
20260503200142 51 354 0.0 15.6 0.00 0.00 0.00 42 1009.9
20260503195141 51 312 3.5 15.6 0.00 0.00 0.00 42 1010.2
20260503194141 52 331 3.5 11.3 0.00 0.00 0.00 43 1010.0
20260503191142 51 288 0.9 17.4 0.00 0.00 0.00 42 1010.0
20260503190142 52 350 1.7 13.0 0.00 0.00 0.00 44 1009.9
20260503185142 52 334 4.3 13.0 0.00 0.00 0.00 42 1009.9
20260503184142 52 268 6.1 14.8 0.00 0.00 0.00 42 1009.7
20260503183141 52 343 8.7 14.8 0.00 0.00 0.00 43 1009.8
20260503181142 52 248 1.7 15.6 0.00 0.00 0.00 42 1009.7
20260503180142 52 249 6.1 13.0 0.00 0.00 0.00 43 1009.6
20260503175142 51 247 7.8 15.6 0.00 0.00 0.00 45 1009.6
20260503174142 51 4 4.3 15.6 0.00 0.00 0.00 45 1009.9
20260503173142 51 317 7.0 13.0 0.00 0.00 0.00 44 1010.0
20260503172142 51 272 8.7 13.9 0.00 0.00 0.00 45 1009.7
20260503171142 51 324 4.3 13.9 0.00 0.00 0.00 46 1009.8
20260503170142 51 199 4.3 13.9 0.00 0.00 0.00 44 1009.6
20260503160141 52 359 0.9 15.6 0.00 0.03 0.00 44 1009.7
20260503150142 49 45 4.3 12.2 0.00 0.10 0.00 52 1009.8